THY6QN LTFM-LTAI

Flight info

Callsign THY6QN
Flight time 0h 51m
Altitude 35000
Route RATVU1D/35L RATVU UT35 BABSA
Aircraft B77W/H-SDE1E2E3FGHIJ2J3J4J5M1RWXY/LB1D1

Departure

Time 2026-05-03 20:57
Airport İstanbul Airport (LTFM)

Arrival

Time 2026-05-03 21:48
Airport Antalya International Airport (LTAI)
Time Latitude Longitude Altitude Speed Heading
2026-05-03 20:16 41.26648 28.73755 335 ft 0 kts 272°
2026-05-03 20:47 41.26647 28.73776 333 ft 4 kts 269°
2026-05-03 20:47 41.26648 28.73812 333 ft 4 kts 267°
2026-05-03 20:47 41.26649 28.73844 333 ft 4 kts 274°
2026-05-03 20:47 41.26641 28.73871 333 ft 4 kts 334°
2026-05-03 20:48 41.26616 28.73879 333 ft 4 kts 359°
2026-05-03 20:48 41.26602 28.73879 333 ft 1 kts 359°
2026-05-03 20:48 41.26601 28.73879 333 ft 0 kts 359°
2026-05-03 20:51 41.26615 28.73879 333 ft 6 kts 359°
2026-05-03 20:51 41.26673 28.73877 334 ft 9 kts 359°
2026-05-03 20:51 41.26734 28.73875 338 ft 9 kts 359°
2026-05-03 20:51 41.26810 28.73872 337 ft 13 kts 358°
2026-05-03 20:52 41.26915 28.73869 335 ft 16 kts 359°
2026-05-03 20:52 41.27015 28.73867 337 ft 9 kts 355°
2026-05-03 20:52 41.27049 28.73805 333 ft 10 kts 279°
2026-05-03 20:52 41.27048 28.73679 335 ft 18 kts 268°
2026-05-03 20:53 41.27046 28.73508 335 ft 19 kts 269°
2026-05-03 20:53 41.27045 28.73335 335 ft 19 kts 269°
2026-05-03 20:53 41.27043 28.73163 339 ft 19 kts 269°
2026-05-03 20:53 41.27041 28.73024 339 ft 7 kts 266°
2026-05-03 20:54 41.27029 28.72993 333 ft 5 kts 227°
2026-05-03 20:54 41.26923 28.72989 335 ft 13 kts 178°
2026-05-03 20:54 41.26815 28.72992 335 ft 16 kts 179°
2026-05-03 20:55 41.26741 28.72992 336 ft 5 kts 192°
2026-05-03 20:55 41.26721 28.72947 337 ft 7 kts 256°
2026-05-03 20:55 41.26715 28.72838 339 ft 17 kts 268°
2026-05-03 20:55 41.26713 28.72653 335 ft 20 kts 269°
2026-05-03 20:56 41.26719 28.72533 337 ft 9 kts 306°
2026-05-03 20:56 41.26791 28.72513 334 ft 20 kts 358°
2026-05-03 20:56 41.27155 28.72507 334 ft 93 kts 359°
2026-05-03 20:56 41.28048 28.72482 415 ft 152 kts
2026-05-03 20:57 41.29092 28.72436 1273 ft 151 kts
2026-05-03 20:57 41.30148 28.72440 2115 ft 154 kts
2026-05-03 20:57 41.31270 28.72467 2761 ft 169 kts
2026-05-03 20:57 41.32531 28.72489 3207 ft 194 kts
2026-05-03 20:58 41.33944 28.72525 3766 ft 212 kts
2026-05-03 20:58 41.35385 28.72845 4550 ft 211 kts 28°
2026-05-03 20:58 41.36438 28.74186 5362 ft 220 kts 54°
2026-05-03 20:58 41.37024 28.76123 6176 ft 234 kts 74°
2026-05-03 20:59 41.37034 28.78352 7022 ft 249 kts 94°
2026-05-03 20:59 41.36447 28.80554 7963 ft 261 kts 115°
2026-05-03 20:59 41.35118 28.82307 8750 ft 283 kts 146°
2026-05-03 20:59 41.33236 28.83215 9653 ft 292 kts 160°
2026-05-03 21:00 41.31248 28.83832 10506 ft 294 kts 161°
2026-05-03 21:00 41.29891 28.84275 10983 ft 301 kts 161°
2026-05-03 21:00 41.27100 28.85256 11715 ft 326 kts 160°
2026-05-03 21:00 41.24843 28.86095 12238 ft 349 kts 160°
2026-05-03 21:01 41.22431 28.87025 12790 ft 371 kts 160°
2026-05-03 21:01 41.19892 28.87999 13558 ft 387 kts 160°
2026-05-03 21:01 41.17266 28.89011 14421 ft 397 kts 160°
2026-05-03 21:01 41.14589 28.90054 15290 ft 405 kts 160°
2026-05-03 21:02 41.11888 28.91116 16189 ft 412 kts 160°
2026-05-03 21:02 41.09129 28.92198 17255 ft 415 kts 160°
2026-05-03 21:02 41.06335 28.93292 18262 ft 421 kts 160°
2026-05-03 21:02 41.03511 28.94398 19091 ft 426 kts 160°
2026-05-03 21:03 41.00646 28.95519 19967 ft 430 kts 160°
2026-05-03 21:03 40.97767 28.96644 20891 ft 433 kts 160°
2026-05-03 21:03 40.94866 28.97777 21753 ft 437 kts 160°
2026-05-03 21:03 40.91930 28.98924 22545 ft 443 kts 161°
2026-05-03 21:04 40.88967 29.00081 23313 ft 448 kts 161°
2026-05-03 21:04 40.85957 29.01254 24006 ft 452 kts 161°
2026-05-03 21:04 40.82946 29.02425 24817 ft 451 kts 160°
2026-05-03 21:04 40.79937 29.03596 25600 ft 450 kts 160°
2026-05-03 21:05 40.76934 29.04765 26417 ft 449 kts 160°
2026-05-03 21:05 40.73938 29.05927 27163 ft 449 kts 160°
2026-05-03 21:05 40.70938 29.07090 27858 ft 450 kts 159°
2026-05-03 21:05 40.67932 29.08254 28505 ft 452 kts 159°
2026-05-03 21:06 40.64906 29.09426 29110 ft 453 kts 159°
2026-05-03 21:06 40.61875 29.10598 29668 ft 454 kts 159°
2026-05-03 21:06 40.58842 29.11770 30165 ft 456 kts 159°
2026-05-03 21:06 40.55790 29.12949 30559 ft 459 kts 160°
2026-05-03 21:07 40.52706 29.14140 30739 ft 465 kts 160°
2026-05-03 21:07 40.49598 29.15338 31149 ft 465 kts 160°
2026-05-03 21:07 40.46510 29.16525 31806 ft 460 kts 160°
2026-05-03 21:07 40.43444 29.17701 32370 ft 458 kts 160°
2026-05-03 21:08 40.40385 29.18876 32792 ft 459 kts 160°
2026-05-03 21:08 40.37323 29.20052 33195 ft 459 kts 160°
2026-05-03 21:08 40.34255 29.21231 33601 ft 460 kts 161°
2026-05-03 21:08 40.31148 29.22423 33615 ft 470 kts 161°
2026-05-03 21:09 40.27993 29.23632 33802 ft 474 kts 162°
2026-05-03 21:09 40.24825 29.24843 34182 ft 474 kts 162°
2026-05-03 21:09 40.21675 29.26045 34618 ft 471 kts 162°
2026-05-03 21:09 40.18522 29.27248 34852 ft 474 kts 162°
2026-05-03 21:10 40.12151 29.29676 34918 ft 476 kts 161°
2026-05-03 21:10 40.05810 29.32085 34917 ft 475 kts 162°
2026-05-03 21:11 39.99438 29.34511 34915 ft 479 kts 161°
2026-05-03 21:11 39.93030 29.36938 34901 ft 480 kts 162°
2026-05-03 21:12 39.86712 29.39739 34894 ft 480 kts 157°
2026-05-03 21:12 39.80473 29.42914 34887 ft 482 kts 157°
2026-05-03 21:13 39.74218 29.46092 34883 ft 483 kts 157°
2026-05-03 21:13 39.67943 29.49250 34865 ft 484 kts 158°
2026-05-03 21:14 39.61696 29.52375 34850 ft 485 kts 158°
2026-05-03 21:14 39.55404 29.55513 34854 ft 484 kts 157°
2026-05-03 21:15 39.49127 29.58639 34839 ft 482 kts 156°
2026-05-03 21:15 39.42879 29.61748 34831 ft 481 kts 157°
2026-05-03 21:16 39.36629 29.64857 34826 ft 481 kts 157°
2026-05-03 21:16 39.30376 29.67948 34829 ft 481 kts 157°
2026-05-03 21:17 39.25174 29.70517 34819 ft 482 kts 157°
2026-05-03 21:17 39.17853 29.74135 34807 ft 483 kts 157°
2026-05-03 21:18 39.11568 29.77242 34811 ft 485 kts 158°
2026-05-03 21:18 39.05288 29.80326 34803 ft 487 kts 158°
2026-05-03 21:19 38.98906 29.83452 34805 ft 488 kts 158°
2026-05-03 21:19 38.92587 29.86548 34794 ft 490 kts 159°
2026-05-03 21:20 38.86205 29.89669 34794 ft 491 kts 159°
2026-05-03 21:20 38.79821 29.92781 34797 ft 491 kts 158°
2026-05-03 21:21 38.73443 29.95889 34788 ft 490 kts 158°
2026-05-03 21:21 38.67077 29.98986 34785 ft 489 kts 159°
2026-05-03 21:22 38.60725 30.02064 34783 ft 487 kts 158°
2026-05-03 21:22 38.57561 30.03596 34604 ft 484 kts 158°
2026-05-03 21:22 38.54414 30.05119 34314 ft 485 kts 158°
2026-05-03 21:23 38.51252 30.06649 33829 ft 488 kts 158°
2026-05-03 21:23 38.48057 30.08194 32771 ft 492 kts 158°
2026-05-03 21:23 38.44852 30.09742 31838 ft 492 kts 158°
2026-05-03 21:23 38.41650 30.11285 30857 ft 492 kts 157°
2026-05-03 21:24 38.38458 30.12823 30077 ft 488 kts 157°
2026-05-03 21:24 38.35293 30.14345 29307 ft 483 kts 156°
2026-05-03 21:24 38.32169 30.15846 28587 ft 476 kts 156°
2026-05-03 21:24 38.29090 30.17324 27950 ft 470 kts 157°
2026-05-03 21:25 38.26051 30.18783 27286 ft 465 kts 157°
2026-05-03 21:25 38.23037 30.20228 26655 ft 460 kts 157°
2026-05-03 21:25 38.20097 30.21637 26036 ft 456 kts 156°
2026-05-03 21:25 38.17122 30.23061 25735 ft 444 kts 156°
2026-05-03 21:26 38.14311 30.24404 25549 ft 431 kts 156°
2026-05-03 21:26 38.11540 30.25728 25381 ft 419 kts 156°
2026-05-03 21:26 38.08848 30.27015 25195 ft 408 kts 156°
2026-05-03 21:26 38.06227 30.28267 25035 ft 397 kts 156°
2026-05-03 21:27 38.03671 30.29485 24870 ft 388 kts 156°
2026-05-03 21:27 38.01218 30.30770 24680 ft 373 kts 146°
2026-05-03 21:27 37.99176 30.32654 24424 ft 358 kts 136°
2026-05-03 21:27 37.97249 30.34657 24173 ft 358 kts 136°
2026-05-03 21:28 37.95307 30.36655 23904 ft 362 kts 136°
2026-05-03 21:28 37.93241 30.38507 23634 ft 365 kts 143°
2026-05-03 21:28 37.91070 30.40169 23337 ft 365 kts 143°
2026-05-03 21:28 37.88884 30.41803 22977 ft 363 kts 144°
2026-05-03 21:29 37.86714 30.43420 22713 ft 360 kts 144°
2026-05-03 21:29 37.84569 30.45024 22546 ft 358 kts 144°
2026-05-03 21:29 37.82429 30.46633 22380 ft 357 kts 144°
2026-05-03 21:29 37.80288 30.48250 22234 ft 359 kts 144°
2026-05-03 21:30 37.78138 30.49879 22078 ft 361 kts 144°
2026-05-03 21:30 37.75982 30.51513 21925 ft 362 kts 144°
2026-05-03 21:30 37.73818 30.53151 21757 ft 362 kts 144°
2026-05-03 21:30 37.71657 30.54785 21586 ft 362 kts 144°
2026-05-03 21:31 37.69501 30.56417 21452 ft 361 kts 145°
2026-05-03 21:31 37.67364 30.58032 21256 ft 355 kts 145°
2026-05-03 21:31 37.65267 30.59615 21081 ft 347 kts 145°
2026-05-03 21:31 37.63224 30.61155 20889 ft 340 kts 145°
2026-05-03 21:32 37.61192 30.62689 20739 ft 340 kts 145°
2026-05-03 21:32 37.59164 30.64219 20547 ft 340 kts 145°
2026-05-03 21:32 37.57156 30.65734 20304 ft 342 kts 146°
2026-05-03 21:32 37.55086 30.67297 19966 ft 343 kts 146°
2026-05-03 21:33 37.53066 30.68819 19616 ft 341 kts 147°
2026-05-03 21:33 37.51041 30.70343 19308 ft 337 kts 148°
2026-05-03 21:33 37.49037 30.71849 19012 ft 334 kts 148°
2026-05-03 21:33 37.47056 30.73337 18698 ft 330 kts 148°
2026-05-03 21:34 37.45094 30.74810 18408 ft 327 kts 148°
2026-05-03 21:34 37.43148 30.76271 18103 ft 324 kts 148°
2026-05-03 21:34 37.41220 30.77717 17791 ft 321 kts 149°
2026-05-03 21:34 37.39306 30.79152 17463 ft 319 kts 149°
2026-05-03 21:35 37.37406 30.80574 17143 ft 317 kts 149°
2026-05-03 21:35 37.35520 30.81987 16808 ft 315 kts 149°
2026-05-03 21:35 37.33640 30.83393 16492 ft 313 kts 149°
2026-05-03 21:35 37.31771 30.84790 16185 ft 312 kts 149°
2026-05-03 21:36 37.29910 30.86181 15857 ft 311 kts 149°
2026-05-03 21:36 37.28056 30.87567 15564 ft 309 kts 149°
2026-05-03 21:36 37.26210 30.88947 15255 ft 308 kts 150°
2026-05-03 21:36 37.24372 30.90319 14995 ft 306 kts 150°
2026-05-03 21:37 37.22557 30.91672 14779 ft 302 kts 150°
2026-05-03 21:37 37.20749 30.93019 14497 ft 303 kts 150°
2026-05-03 21:37 37.18936 30.94370 14107 ft 304 kts 150°
2026-05-03 21:37 37.17109 30.95730 13689 ft 307 kts 150°
2026-05-03 21:38 37.15274 30.97096 13321 ft 306 kts 150°
2026-05-03 21:38 37.13441 30.98438 12936 ft 302 kts 155°
2026-05-03 21:38 37.11447 30.99090 12488 ft 296 kts 184°
2026-05-03 21:38 37.09471 30.98616 12176 ft 286 kts 197°
2026-05-03 21:39 37.07531 30.98033 11831 ft 288 kts 195°
2026-05-03 21:39 37.05563 30.97488 11506 ft 293 kts 194°
2026-05-03 21:39 37.03549 30.96951 11151 ft 297 kts 194°
2026-05-03 21:39 37.01520 30.96422 10796 ft 298 kts 194°
2026-05-03 21:40 36.99522 30.95906 10452 ft 297 kts 194°
2026-05-03 21:40 36.97499 30.95387 10142 ft 295 kts 194°
2026-05-03 21:40 36.95516 30.94884 10013 ft 286 kts 194°
2026-05-03 21:40 36.93571 30.94389 9703 ft 286 kts 194°
2026-05-03 21:41 36.91626 30.93894 9370 ft 285 kts 194°
2026-05-03 21:41 36.89673 30.93425 8942 ft 288 kts 191°
2026-05-03 21:41 36.87688 30.93199 8404 ft 285 kts 186°
2026-05-03 21:41 36.85719 30.93048 7870 ft 281 kts 186°
2026-05-03 21:42 36.83783 30.92885 7339 ft 277 kts 187°
2026-05-03 21:42 36.81879 30.92717 6824 ft 273 kts 187°
2026-05-03 21:42 36.80605 30.92598 6496 ft 270 kts 187°
2026-05-03 21:42 36.78822 30.92280 5974 ft 255 kts 203°
2026-05-03 21:43 36.77436 30.91097 5493 ft 233 kts 235°
2026-05-03 21:43 36.76651 30.89412 5110 ft 222 kts 251°
2026-05-03 21:43 36.76294 30.87593 4755 ft 211 kts 265°
2026-05-03 21:43 36.76144 30.85810 4310 ft 202 kts 268°
2026-05-03 21:44 36.76013 30.84113 3952 ft 190 kts 268°
2026-05-03 21:44 36.75885 30.82501 3581 ft 185 kts 269°
2026-05-03 21:44 36.75759 30.80938 3225 ft 176 kts 269°
2026-05-03 21:44 36.75912 30.79527 2891 ft 160 kts 300°
2026-05-03 21:45 36.76592 30.78465 2676 ft 159 kts 330°
2026-05-03 21:45 36.77628 30.78109 2424 ft 152 kts 353°
2026-05-03 21:45 36.78653 30.77994 2141 ft 143 kts 360°
2026-05-03 21:45 36.79626 30.77989 1981 ft 136 kts
2026-05-03 21:46 36.80563 30.78011 1772 ft 134 kts
2026-05-03 21:46 36.81497 30.78107 1580 ft 134 kts
2026-05-03 21:46 36.82439 30.78228 1409 ft 138 kts
2026-05-03 21:46 36.83389 30.78356 1235 ft 138 kts
2026-05-03 21:47 36.84340 30.78490 1026 ft 138 kts
2026-05-03 21:47 36.85288 30.78621 808 ft 138 kts
2026-05-03 21:47 36.86227 30.78753 636 ft 135 kts
2026-05-03 21:47 36.87170 30.78878 485 ft 136 kts
2026-05-03 21:48 36.88118 30.79008 308 ft 137 kts
2026-05-03 21:48 36.89062 30.79143 208 ft 135 kts
2026-05-03 21:48 36.89896 30.79250 201 ft 99 kts
2026-05-03 21:48 36.90266 30.79308 200 ft 25 kts 17°
2026-05-03 21:49 36.90388 30.79405 205 ft 15 kts 36°
2026-05-03 21:49 36.90461 30.79473 203 ft 10 kts 40°
2026-05-03 21:49 36.90462 30.79529 210 ft 7 kts 134°
2026-05-03 21:49 36.90414 30.79541 207 ft 9 kts 178°
2026-05-03 21:50 36.90316 30.79531 198 ft 18 kts 186°
2026-05-03 21:50 36.90188 30.79511 203 ft 19 kts 187°
2026-05-03 21:50 36.90059 30.79493 207 ft 19 kts 186°
2026-05-03 21:50 36.89930 30.79476 208 ft 18 kts 186°
2026-05-03 21:51 36.89827 30.79517 208 ft 16 kts 147°
2026-05-03 21:51 36.89721 30.79539 202 ft 15 kts 183°
2026-05-03 21:51 36.89656 30.79594 204 ft 12 kts 109°
2026-05-03 21:51 36.89644 30.79697 197 ft 12 kts 95°
2026-05-03 21:52 36.89635 30.79800 208 ft 12 kts 96°
2026-05-03 21:52 36.89626 30.79903 199 ft 12 kts 96°
2026-05-03 21:52 36.89617 30.80007 206 ft 12 kts 96°
2026-05-03 21:52 36.89609 30.80110 203 ft 11 kts 96°
2026-05-03 21:53 36.89617 30.80154 205 ft 3 kts 39°
2026-05-03 21:53 36.89638 30.80163 203 ft 3 kts 12°
2026-05-03 21:53 36.89660 30.80166 208 ft 3 kts
2026-05-03 21:53 36.89679 30.80164 210 ft 2 kts 352°
2026-05-03 21:54 36.89691 30.80162 208 ft 1 kts 352°
2026-05-03 21:54 36.89692 30.80162 207 ft 0 kts 352°